Location: Broek
(53.2737°N, 5.9967°E)
Time: 22:29:37
(UTC+00:00)

Terra - Pass Details

Date: 10 October 2024
Orbit: 692 x 693 km, 98.0° (Epoch: 10 November)

Event Time Altitude Azimuth Distance (km) Brightness Sun altitude
Exits shadow 20:19:44 31° 356° (N) 1,226 3.3 -30.8°
Drops below altitude 10° 20:22:12 10° 349° (N) 2,163 4.8 -31.1°
Sets 20:24:28 0° 347° (NNW) 3,085 5.8 -31.4°
